Date String (YYYY-MM-DD hh:mm:ss) UTC,Instrument flags,Ambient pressure (hPa),Sample flow (lpm),Bypass flow (lpm),Sample temperature (°C),Ambient temperature (°C),ASC tube jacket temperature (°C),LED temperature (°C),Box temperature (°C),Sample RH (%),Span deviation,Mass concentration (μg/m³),Mass concentration (μg/m³),Mass concentration (μg/m³)
DateTimeUTC,F1_M11,P_M11,Q1_M11,Q2_M11,T1_M11,T2_M11,T3_M11,T4_M11,T5_M11,U1_M11,ZSPAN_M11,X2_M11,X0_M11,X1_M11
2022-10-11 16:00:00,,0821.6,4.98,0.00,30.4,28.9,00.0,39.0,32.3,09.9,0000.0,0004.87,0010.00,0004.25
2022-10-11 16:01:00,,0821.6,5.01,0.00,30.3,27.5,00.0,39.0,32.0,09.9,0000.0,0004.94,0010.26,0004.27
2022-10-11 16:02:00,,0821.5,4.99,0.00,30.3,26.9,00.0,39.0,31.9,10.1,0000.0,0005.00,0010.72,0004.29
2022-10-11 16:03:00,,0821.5,5.00,0.00,30.2,27.1,00.0,38.9,31.9,10.2,0000.0,0005.04,0010.23,0004.31
2022-10-11 16:04:00,,0821.6,5.00,0.00,30.1,27.4,00.0,38.9,31.8,10.3,0000.0,0005.09,0010.54,0004.34
2022-10-11 16:05:00,,0821.6,5.00,0.00,30.1,27.7,00.0,38.9,31.8,10.4,0000.0,0005.14,0010.71,0004.36
2022-10-11 16:06:00,,0821.6,5.00,0.00,30.1,28.0,00.0,38.9,31.9,10.5,0000.0,0005.12,0010.63,0004.37
2022-10-11 16:07:00,,0821.6,4.99,0.00,30.1,28.2,00.0,38.9,31.9,10.5,0000.0,0005.13,0010.58,0004.36
2022-10-11 16:08:00,,0821.5,4.99,0.00,30.1,28.4,00.0,38.9,31.9,10.6,0000.0,0005.03,0010.27,0004.31
2022-10-11 16:09:00,,0821.6,5.00,0.00,30.1,28.6,00.0,38.9,32.0,10.5,0000.0,0004.82,0009.40,0004.22
2022-10-11 16:10:00,,0821.5,5.02,0.00,30.1,28.7,00.0,38.9,32.0,10.4,0000.0,0004.71,0008.97,0004.15
2022-10-11 16:11:00,,0821.5,5.00,0.00,30.2,28.8,00.0,38.9,32.0,10.4,0000.0,0004.66,0008.86,0004.12
2022-10-11 16:12:00,,0821.4,5.00,0.00,30.2,28.9,00.0,38.9,32.0,10.3,0000.0,0004.61,0008.89,0004.11
2022-10-11 16:13:00,,0821.4,5.01,0.00,30.2,29.0,00.0,38.9,32.1,09.7,0000.0,0004.63,0008.50,0004.16
2022-10-11 16:14:00,,0821.4,4.99,0.00,30.2,29.1,00.0,38.9,32.1,09.2,0000.0,0004.74,0008.51,0004.26
2022-10-11 16:15:00,,0821.4,5.00,0.00,30.2,29.1,00.0,38.9,32.1,08.9,0000.0,0004.89,0008.89,0004.37
2022-10-11 16:16:00,,0821.4,5.01,0.00,30.3,29.0,00.0,38.9,32.1,08.8,0000.0,0005.09,0009.46,0004.49
2022-10-11 16:17:00,,0821.4,5.01,0.00,30.3,27.9,00.0,38.9,32.0,08.9,0000.0,0005.27,0009.82,0004.64
2022-10-11 16:18:00,,0821.4,4.98,0.00,30.2,26.6,00.0,38.9,31.7,08.9,0000.0,0005.45,0010.06,0004.79
2022-10-11 16:19:00,,0821.3,5.01,0.00,30.1,26.6,00.0,38.8,31.7,09.0,0000.0,0005.60,0010.15,0004.94
2022-10-11 16:20:00,,0821.3,4.99,0.00,30.0,26.9,00.0,38.8,31.7,09.1,0000.0,0005.87,0011.12,0005.10
2022-10-11 16:21:00,,0821.2,5.00,0.00,30.0,27.2,00.0,38.8,31.7,09.2,0000.0,0006.04,0011.63,0005.22
2022-10-11 16:22:00,,0821.3,5.00,0.00,30.0,27.5,00.0,38.8,31.7,08.9,0000.0,0006.17,0012.70,0005.33
2022-10-11 16:23:00,,0821.3,5.00,0.00,29.9,27.8,00.0,38.7,31.7,08.5,0000.0,0006.31,0012.78,0005.45
2022-10-11 16:24:00,,0821.3,5.00,0.00,29.9,28.0,00.0,38.7,31.7,08.4,0000.9,0006.39,0013.22,0005.51
2022-10-11 16:25:00,,0821.3,5.00,0.00,30.0,28.2,00.0,38.7,31.8,08.4,0002.1,0006.39,0015.92,0005.50
2022-10-11 16:26:00,,0821.2,5.01,0.00,30.0,28.3,00.0,38.7,31.8,08.7,0002.7,0006.35,0015.97,0005.48
2022-10-11 16:27:00,,0821.2,4.98,0.00,30.0,28.4,00.0,38.7,31.9,09.0,0002.4,0006.28,0015.37,0005.46
2022-10-11 16:28:00,,0821.0,5.01,0.00,30.0,28.5,00.0,38.7,31.8,08.9,0001.8,0006.18,0014.94,0005.42
2022-10-11 16:29:00,,0821.0,5.01,0.00,30.0,28.6,00.0,38.7,31.9,08.8,0001.6,0006.14,0014.86,0005.39
2022-10-11 16:30:00,,0821.1,4.99,0.00,30.0,28.7,00.0,38.7,31.9,08.8,0001.8,0006.08,0014.88,0005.34
2022-10-11 16:31:00,,0821.1,5.00,0.00,30.0,28.7,00.0,38.7,31.9,08.6,0001.7,0005.98,0014.37,0005.29
2022-10-11 16:32:00,,0821.1,5.01,0.00,30.0,28.8,00.0,38.7,31.9,08.6,0002.0,0005.87,0013.98,0005.26
2022-10-11 16:33:00,,0821.0,5.00,0.00,30.1,28.8,00.0,38.8,31.9,08.6,0001.8,0005.81,0013.37,0005.24
2022-10-11 16:34:00,,0820.9,5.00,0.00,30.1,27.8,00.0,38.7,31.9,08.5,0001.0,0005.78,0013.26,0005.22
2022-10-11 16:35:00,,0820.9,5.00,0.00,30.0,26.6,00.0,38.7,31.7,08.4,0002.0,0005.78,0014.39,0005.20
2022-10-11 16:36:00,,0820.8,5.00,0.00,29.9,26.5,00.0,38.7,31.6,08.2,0001.3,0005.77,0011.83,0005.21
2022-10-11 16:37:00,,0820.9,5.00,0.00,29.9,26.8,00.0,38.6,31.6,07.9,0002.5,0005.73,0011.86,0005.19
2022-10-11 16:38:00,,0820.9,5.00,0.00,29.8,27.1,00.0,38.6,31.5,07.9,0002.8,0005.71,0012.12,0005.15
2022-10-11 16:39:00,,0820.9,5.00,0.00,29.8,27.4,00.0,38.6,31.5,07.7,0002.1,0005.72,0012.32,0005.10
2022-10-11 16:40:00,,0820.8,4.99,0.00,29.8,27.6,00.0,38.6,31.5,07.8,0003.0,0005.70,0012.36,0005.06
2022-10-11 16:41:00,,0820.9,5.00,0.00,29.8,27.8,00.0,38.6,31.6,07.8,0002.8,0005.66,0012.29,0005.01
2022-10-11 16:42:00,,0821.0,5.01,0.00,29.8,28.0,00.0,38.5,31.5,08.0,0002.5,0005.97,0045.13,0005.02
2022-10-11 16:43:00,,0821.0,5.00,0.00,29.8,28.1,00.0,38.5,31.6,08.3,0002.1,0006.41,0087.36,0005.06
2022-10-11 16:44:00,,0821.0,4.99,0.00,29.8,28.2,00.0,38.5,31.6,08.4,0001.3,0006.59,0095.45,0005.06
2022-10-11 16:45:00,,0821.1,5.01,0.00,29.8,28.3,00.0,38.5,31.7,08.5,0001.4,0006.62,0096.01,0005.08
2022-10-11 16:46:00,,0821.0,4.99,0.00,29.8,28.3,00.0,38.6,31.7,08.6,0000.8,0006.61,0094.87,0005.09
2022-10-11 16:47:00,,0820.9,5.00,0.00,29.8,28.3,00.0,38.6,31.7,08.3,0001.4,0006.63,0094.60,0005.09
2022-10-11 16:48:00,,0820.9,5.00,0.00,29.8,28.4,00.0,38.6,31.7,08.2,0000.6,0006.67,0094.73,0005.09
2022-10-11 16:49:00,,0820.9,5.00,0.00,29.8,28.4,00.0,38.6,31.7,08.4,0000.7,0006.67,0095.89,0005.11
2022-10-11 16:50:00,,0820.9,5.00,0.00,29.9,28.5,00.0,38.6,31.7,08.6,0001.5,0006.65,0096.03,0005.14
2022-10-11 16:51:00,,0820.9,5.01,0.00,29.9,28.6,00.0,38.6,31.7,08.1,0001.2,0006.65,0095.95,0005.17
2022-10-11 16:52:00,,0820.7,4.98,0.00,29.9,28.6,00.0,38.6,31.8,08.4,0000.8,0006.67,0096.15,0005.17
2022-10-11 16:53:00,,0820.7,5.01,0.00,29.9,28.7,00.0,38.6,31.8,08.2,0000.9,0006.44,0064.51,0005.14
2022-10-11 16:54:00,,0820.8,5.00,0.00,29.9,28.7,00.0,38.6,31.8,08.2,0000.8,0006.03,0022.07,0005.11
2022-10-11 16:55:00,,0820.7,4.99,0.00,29.9,28.7,00.0,38.6,31.9,08.4,0000.9,0005.86,0013.89,0005.10
2022-10-11 16:56:00,,0820.8,5.00,0.00,30.0,28.8,00.0,38.7,31.9,10.9,0001.4,0008.57,0123.66,0005.18
2022-10-11 16:57:00,,0820.7,5.01,0.00,30.0,28.4,00.0,38.7,31.9,10.6,0002.1,0011.61,0240.08,0005.26
2022-10-11 16:58:00,,0820.7,5.00,0.00,30.0,26.9,00.0,38.6,31.7,10.2,0001.5,0011.52,0240.93,0005.18
2022-10-11 16:59:00,,0820.8,4.99,0.00,29.9,26.2,00.0,38.6,31.6,10.1,0001.3,0011.39,0240.82,0005.09
